Regional Weather Roundup
Issued by NWS

Home | Current Version | Previous Version | Text Only | Print | Product List | Glossary On
Versions: 1 2 3 4 5 6 7 8 9 10 11 12 13 14 15 16 17 18 19 20 21 22 23 24 25 26 27 28 29 30 31 32 33 34 35 36 37 38 39 40 41 42 43 44 45 46 47 48 49 50
000
ASUS46 KSTO 220815
RWRCA

NORTHERN AND CENTRAL CA REGIONAL WEATHER ROUNDUP
NATIONAL WEATHER SERVICE SACRAMENTO CA
100 AM PDT SUN OCT 22 2017

NOTE: FAIR INDICATES FEW OR NO CLOUDS BELOW 12,000 FEET WITH NO
SIGNIFICANT WEATHER AND/OR OBSTRUCTIONS TO VISIBILITY.

CAZ001-003-220900-
NORTHWEST AREA

CITY           SKY/WX    TMP DP  RH WIND       PRES   REMARKS
CRESCENT CITY  CLOUDY    56  55  97 S16       30.27R
UKIAH          CLEAR     52  49  89 CALM      30.34S
$$

CAZ006-505>513-220900-
BAY AREA

CITY           SKY/WX    TMP DP  RH WIND       PRES   REMARKS
SANTA ROSA     CLEAR     50  48  93 CALM      30.31R
SAN RAFAEL     N/A       58  MM  MM MISG
NAPA           CLEAR     45  44  97 SE5       30.31R
CONCORD        CLEAR     57  51  80 CALM      30.32R
OAKLAND CITY   N/A      MM  MM  MM MISG
OAKLAND        CLEAR     51  50  96 NE5       30.33R
SAN FRAN CITY  N/A       56  MM  81 MISG
SAN FRAN ARPT  CLEAR     56  51  84 W6        30.31R
LIVERMORE      CLEAR     51  46  83 CALM      30.31R
HAYWARD        CLEAR     55  48  77 NE3       30.32R
REDWOOD CITY   N/A       52  MM  86 MISG
MOFFETT ARPT   CLEAR     54  49  83 CALM      30.32R
SAN JOSE ARPT  CLEAR     56  50  80 CALM      30.31S
$$
CAZ034-037-514>518-220900-
CENTRAL COAST

CITY           SKY/WX    TMP DP  RH WIND       PRES   REMARKS
WATSONVILLE    CLEAR     50  45  83 NW7       30.30R
SALINAS        CLEAR     52  46  80 CALM      30.29R
MONTEREY       CLEAR     52  43  71 E3        30.29R
SAN LUIS OBISP CLEAR     66  39  37 N9        30.20F
SANTA MARIA    CLEAR     66  38  35 N21G30    30.17F
$$
CAZ015-016-220900-
NORTHERN SACRAMENTO VALLEY

CITY           SKY/WX    TMP DP  RH WIND       PRES   REMARKS
REDDING        CLEAR     49  45  86 CALM      30.32R
RED BLUFF      CLEAR     49  44  83 NW6       30.31S
OROVILLE       CLEAR     51  46  83 W6        30.31R
$$
CAZ016>018-220900-
SOUTHERN SACRAMENTO VALLEY

CITY           SKY/WX    TMP DP  RH WIND       PRES   REMARKS
AUBURN         CLEAR     48  43  81 CALM      30.31R
BEALE AFB      CLEAR     48  44  85 CALM      30.28R FOG
LINCOLN        FAIR      45  41  87 CALM      30.29R
MARYSVILLE     CLEAR     50  45  83 CALM      30.30R
SAC INTL ARPT  CLEAR     51  45  79 W7        30.29R
MATHER AIRPORT NOT AVBL
DOWNTOWN SAC   N/A       53  MM  MM MISG
SAC EXEC ARPT  CLEAR     51  49  92 CALM      30.30R
VACAVILLE      CLEAR     52  48  86 CALM      30.31R
TRAVIS AFB     CLEAR     49  47  96 W3        30.29R
$$
CAZ019>021-220900-
SAN JOAQUIN VALLEY

CITY           SKY/WX    TMP DP  RH WIND       PRES   REMARKS
STOCKTON       CLEAR     51  47  86 N3        30.29R
MODESTO        CLEAR     52  48  86 CALM      30.29R
MERCED         CLEAR     49  41  74 CALM      30.29S
LEMOORE        CLEAR    N/A N/A N/A CALM      30.30S
FRESNO         CLEAR     53  47  79 CALM      30.30F
HANFORD        CLEAR     49  47  93 CALM      30.31R
PORTERVILLE    CLEAR     50  41  71 E5        30.31S
BAKERSFIELD    CLEAR     58  43  57 E6        30.29S
$$
CAZ011-012-071-220900-
NORTHERN MOUNTAINS

CITY           SKY/WX    TMP DP  RH WIND       PRES   REMARKS
YREKA          MOCLDY    42  39  89 W3        30.27F
MOUNT SHASTA   CLOUDY    40  38  93 CALM      30.32S
ALTURAS        CLOUDY    48  41  76 SW5       30.32R
$$
CAZ011-012-071-220900-
SIERRA NEVADA MTNS

CITY           SKY/WX    TMP DP  RH WIND       PRES   REMARKS
BLUE CANYON    CLEAR     50  36  58 CALM      30.38R
TRUCKEE        FOG       28  28 100 CALM      30.39R VSB 1/4
TAHOE VLY ARPT CLEAR     31  29  92 S5        30.39S WCI  26
MAMMOTH LAKES  FAIR      33  26  76 CALM      30.45S
$$




USA.gov is the U.S. government's official web portal to all federal, state and local government web resources and services.